Location: Newark
(33.6333°S, 78.8500°W)
Time: 02:52:51
(UTC+00:00)

Courier 1B - Pass Details

Date: 27 September 2019
Orbit: 962 x 1209 km, 28.3° (Epoch: 18 October)

Event Time Altitude Azimuth Distance (km) Brightness Sun altitude
Rises 01:32:26 0° 269° (W) 4,017 11.7 -28.7°
Reaches altitude 10° 01:35:40 10° 279° (W) 3,017 10.7 -29.3°
Maximum altitude 01:41:56 30° 337° (NNW) 1,836 8.8 -30.5°
Enters shadow 01:42:15 30° 342° (NNW) 1,836 8.8 -30.6°
Drops below altitude 10° 01:47:52 10° 35° (NE) 2,846 - -31.6°
Sets 01:50:50 0° 46° (NE) 3,757 - -32.2°
